Orbital Elements at Epoch 2459000.5 (2020-May-31.0) TDB
Reference: JPL 9 (heliocentric ecliptic J2000)
Element | Value | Uncertainty (1-sigma) | Units |
e | .2272459266784608 | 1.284e-06 | |
a | 2.532718142713762 | 5.8108e-08 | au |
q | 1.957168261357423 | 3.2945e-06 | au |
i | 13.09583219343472 | 4.6292e-05 | deg |
node | 286.1217668372796 | 4.2623e-05 | deg |
peri | 157.3000119119977 | 0.00018706 | deg |
M | 221.4406454888672 | 0.00011243 | deg |
tp | 2459567.146316084916 (2021-Dec-18.64631609) | 0.00044314 | TDB |
period | 1472.240358727852 4.03 | 5.0666e-05 1.387e-07 | d yr |
n | .2445252895465197 | 8.4151e-09 | deg/d |
Q | 3.108268024070101 | 7.1312e-08 | au |
|
| | Orbit Determination Parameters
Additional Information
|